"Period start","avg(HW err(1)/warn(2) (#))","avg(Visibility (m))","avg(Weather code (#))","avg(Precip intensity (mm/h))","min(HW err(1)/warn(2) (#))","max(HW err(1)/warn(2) (#))","std(HW err(1)/warn(2) (#))","med(HW err(1)/warn(2) (#))","min(Visibility (m))","max(Visibility (m))","std(Visibility (m))","med(Visibility (m))","min(Weather code (#))","max(Weather code (#))","std(Weather code (#))","med(Weather code (#))","min(Precip intensity (mm/h))","max(Precip intensity (mm/h))","std(Precip intensity (mm/h))","med(Precip intensity (mm/h))"
2014-06-12 00:00:00,2,46459,0,0.00,2,2,0,2,36160,50000,4786,50000,0,0,0,0,0.00,0.00,0.00,0.00
2014-06-12 00:10:00,2,49295,0,0.00,2,2,0,2,46071,50000,1307,50000,0,0,0,0,0.00,0.00,0.00,0.00
2014-06-12 00:20:00,2,44936,0,0.00,2,2,0,2,36033,50000,5066,44750,0,0,0,0,0.00,0.00,0.00,0.00
2014-06-12 00:30:00,2,47746,0,0.00,2,2,0,2,41067,50000,3050,49218,0,0,0,0,0.00,0.00,0.00,0.00
2014-06-12 00:40:00,2,48532,0,0.00,2,2,0,2,41003,50000,2679,50000,0,0,0,0,0.00,0.00,0.00,0.00
2014-06-12 00:50:00,2,47853,0,0.00,2,2,0,2,41731,50000,2534,48575,0,0,0,0,0.00,0.00,0.00,0.00
2014-06-12 01:00:00,2,41297,0,0.00,2,2,0,2,32872,50000,6413,41192,0,0,0,0,0.00,0.00,0.00,0.00
2014-06-12 01:10:00,2,46818,0,0.00,2,2,0,2,31143,50000,5895,50000,0,0,0,0,0.00,0.00,0.00,0.00
2014-06-12 01:20:00,2,41134,0,0.00,2,2,0,2,26845,50000,8756,45852,0,0,0,0,0.00,0.00,0.00,0.00
2014-06-12 01:30:00,1,48642,0,0.00,0,2,1,0,42414,50000,2645,49977,0,0,0,0,0.00,0.00,0.00,0.00
2014-06-12 01:40:00,2,44847,0,0.00,0,2,1,2,35438,50000,5425,46158,0,0,0,0,0.00,0.00,0.00,0.00
2014-06-12 01:50:00,2,42876,0,0.00,0,2,1,2,35694,50000,4563,41458,0,0,0,0,0.00,0.00,0.00,0.00
2014-06-12 02:00:00,2,44073,0,0.00,2,2,0,2,34884,50000,5315,45924,0,0,0,0,0.00,0.00,0.00,0.00
2014-06-12 02:10:00,2,42464,0,0.00,2,2,0,2,30809,50000,5868,43585,0,0,0,0,0.00,0.00,0.00,0.00
2014-06-12 02:20:00,2,40928,0,0.00,2,2,0,2,26673,50000,7062,42498,0,0,0,0,0.00,0.00,0.00,0.00
2014-06-12 02:30:00,2,48382,0,0.00,2,2,0,2,41530,50000,2614,49946,0,0,0,0,0.00,0.00,0.00,0.00
2014-06-12 02:40:00,2,48389,0,0.00,2,2,0,2,44883,50000,1793,49090,0,0,0,0,0.00,0.00,0.00,0.00
2014-06-12 02:50:00,2,46263,0,0.00,2,2,0,2,36692,50000,4270,47451,0,0,0,0,0.00,0.00,0.00,0.00
2014-06-12 03:00:00,2,47124,0,0.00,2,2,0,2,42425,50000,2967,48066,0,0,0,0,0.00,0.00,0.00,0.00
2014-06-12 03:10:00,2,49126,0,0.00,2,2,0,2,45805,50000,1303,49974,0,0,0,0,0.00,0.00,0.00,0.00
2014-06-12 03:20:00,2,44712,0,0.00,2,2,0,2,36018,50000,5048,46996,0,0,0,0,0.00,0.00,0.00,0.00
2014-06-12 03:30:00,2,48594,0,0.00,2,2,0,2,38631,50000,3394,50000,0,0,0,0,0.00,0.00,0.00,0.00
2014-06-12 03:40:00,2,45450,0,0.00,2,2,0,2,34275,50000,4622,46424,0,0,0,0,0.00,0.00,0.00,0.00
2014-06-12 03:50:00,2,47075,0,0.00,2,2,0,2,40618,50000,3436,49076,0,0,0,0,0.00,0.00,0.00,0.00
2014-06-12 04:00:00,2,45364,0,0.00,2,2,0,2,34492,50000,5170,47316,0,0,0,0,0.00,0.00,0.00,0.00
2014-06-12 04:10:00,2,47745,0,0.00,2,2,0,2,41622,50000,3125,50000,0,0,0,0,0.00,0.00,0.00,0.00
2014-06-12 04:20:00,2,46522,0,0.00,2,2,0,2,31729,50000,5896,50000,0,0,0,0,0.00,0.00,0.00,0.00
2014-06-12 04:30:00,2,47424,0,0.00,2,2,0,2,42216,50000,2720,48529,0,0,0,0,0.00,0.00,0.00,0.00
2014-06-12 04:40:00,2,48256,0,0.00,2,2,0,2,44108,50000,2170,49456,0,0,0,0,0.00,0.00,0.00,0.00
2014-06-12 04:50:00,2,49014,0,0.00,2,2,0,2,43825,50000,1999,50000,0,0,0,0,0.00,0.00,0.00,0.00
2014-06-12 05:00:00,2,46893,0,0.00,2,2,0,2,37301,50000,4266,50000,0,0,0,0,0.00,0.00,0.00,0.00
2014-06-12 05:10:00,2,49722,0,0.00,2,2,0,2,47769,50000,661,50000,0,0,0,0,0.00,0.00,0.00,0.00
2014-06-12 05:20:00,2,46766,0,0.00,2,2,0,2,43649,50000,2150,46608,0,0,0,0,0.00,0.00,0.00,0.00
2014-06-12 05:30:00,2,49866,0,0.00,2,2,0,2,49195,50000,274,50000,0,0,0,0,0.00,0.00,0.00,0.00
2014-06-12 05:40:00,2,48454,0,0.00,2,2,0,2,42480,50000,2533,50000,0,0,0,0,0.00,0.00,0.00,0.00
2014-06-12 05:50:00,2,49623,0,0.00,2,2,0,2,48042,50000,608,50000,0,0,0,0,0.00,0.00,0.00,0.00
2014-06-12 06:00:00,2,47281,0,0.00,2,2,0,2,44771,50000,2136,46665,0,0,0,0,0.00,0.00,0.00,0.00
2014-06-12 06:10:00,2,46648,0,0.00,2,2,0,2,40324,50000,3252,48020,0,0,0,0,0.00,0.00,0.00,0.00
2014-06-12 06:20:00,1,46343,0,0.00,0,2,1,0,39451,50000,3769,47070,0,0,0,0,0.00,0.00,0.00,0.00
2014-06-12 06:30:00,0,46647,0,0.00,0,0,0,0,38135,50000,4257,49107,0,0,0,0,0.00,0.00,0.00,0.00
2014-06-12 06:40:00,0,49605,0,0.00,0,0,0,0,46657,50000,999,50000,0,0,0,0,0.00,0.00,0.00,0.00
2014-06-12 06:50:00,0,48888,0,0.00,0,0,0,0,42788,50000,2344,50000,0,0,0,0,0.00,0.00,0.00,0.00
2014-06-12 07:00:00,0,49666,0,0.00,0,0,0,0,46665,50000,1000,50000,0,0,0,0,0.00,0.00,0.00,0.00
2014-06-12 07:10:00,0,47672,0,0.00,0,0,0,0,42799,50000,2347,47970,0,0,0,0,0.00,0.00,0.00,0.00
2014-06-12 07:20:00,0,49634,0,0.00,0,0,0,0,47736,50000,691,50000,0,0,0,0,0.00,0.00,0.00,0.00
2014-06-12 07:30:00,0,48257,0,0.00,0,0,0,0,40893,50000,3448,50000,0,0,0,0,0.00,0.00,0.00,0.00
2014-06-12 07:40:00,0,46362,0,0.00,0,2,1,0,38867,50000,4577,49827,0,0,0,0,0.00,0.00,0.00,0.00
2014-06-12 07:50:00,0,50000,0,0.00,0,0,0,0,50000,50000,0,50000,0,0,0,0,0.00,0.00,0.00,0.00
2014-06-12 08:00:00,1,48790,0,0.00,0,2,1,2,45546,50000,1585,49531,0,0,0,0,0.00,0.00,0.00,0.00
2014-06-12 08:10:00,2,48040,0,0.00,2,2,0,2,39467,50000,3340,49966,0,0,0,0,0.00,0.00,0.00,0.00
2014-06-12 08:20:00,2,47709,0,0.00,2,2,0,2,39457,50000,3431,49543,0,0,0,0,0.00,0.00,0.00,0.00
2014-06-12 08:30:00,2,47655,0,0.00,2,2,0,2,41103,50000,3056,49624,0,0,0,0,0.00,0.00,0.00,0.00
2014-06-12 08:40:00,2,50000,0,0.00,2,2,0,2,50000,50000,0,50000,0,0,0,0,0.00,0.00,0.00,0.00
2014-06-12 08:50:00,2,48542,0,0.00,2,2,0,2,39942,50000,3082,50000,0,0,0,0,0.00,0.00,0.00,0.00
2014-06-12 09:00:00,2,47988,0,0.00,2,2,0,2,43526,50000,2599,49418,0,0,0,0,0.00,0.00,0.00,0.00
2014-06-12 09:10:00,2,48386,0,0.00,2,2,0,2,44083,50000,2485,50000,0,0,0,0,0.00,0.00,0.00,0.00
2014-06-12 09:20:00,0,49476,0,0.00,0,2,1,0,46851,50000,1075,50000,0,0,0,0,0.00,0.00,0.00,0.00
2014-06-12 09:30:00,0,49718,0,0.00,0,0,0,0,47361,50000,788,50000,0,0,0,0,0.00,0.00,0.00,0.00
2014-06-12 09:40:00,0,49996,0,0.00,0,0,0,0,49957,50000,13,50000,0,0,0,0,0.00,0.00,0.00,0.00
2014-06-12 09:50:00,0,50000,0,0.00,0,0,0,0,50000,50000,0,50000,0,0,0,0,0.00,0.00,0.00,0.00
2014-06-12 10:00:00,0,49892,0,0.00,0,0,0,0,48921,50000,324,50000,0,0,0,0,0.00,0.00,0.00,0.00
2014-06-12 10:10:00,0,49773,0,0.00,0,0,0,0,47792,50000,661,50000,0,0,0,0,0.00,0.00,0.00,0.00
2014-06-12 10:20:00,0,49680,0,0.00,0,0,0,0,48200,50000,591,50000,0,0,0,0,0.00,0.00,0.00,0.00
2014-06-12 10:30:00,0,49978,0,0.00,0,0,0,0,49776,50000,67,50000,0,0,0,0,0.00,0.00,0.00,0.00
2014-06-12 10:40:00,0,50000,0,0.00,0,0,0,0,50000,50000,0,50000,0,0,0,0,0.00,0.00,0.00,0.00
2014-06-12 10:50:00,0,49884,0,0.00,0,0,0,0,48839,50000,348,50000,0,0,0,0,0.00,0.00,0.00,0.00
2014-06-12 11:00:00,0,49900,0,0.00,0,0,0,0,48997,50000,301,50000,0,0,0,0,0.00,0.00,0.00,0.00
2014-06-12 11:10:00,0,49615,0,0.00,0,0,0,0,48282,50000,612,50000,0,0,0,0,0.00,0.00,0.00,0.00
2014-06-12 11:20:00,0,50000,0,0.00,0,0,0,0,50000,50000,0,50000,0,0,0,0,0.00,0.00,0.00,0.00
2014-06-12 11:30:00,0,50000,0,0.00,0,0,0,0,50000,50000,0,50000,0,0,0,0,0.00,0.00,0.00,0.00
2014-06-12 11:40:00,0,50000,0,0.00,0,0,0,0,50000,50000,0,50000,0,0,0,0,0.00,0.00,0.00,0.00
2014-06-12 11:50:00,0,50000,0,0.00,0,0,0,0,50000,50000,0,50000,0,0,0,0,0.00,0.00,0.00,0.00
2014-06-12 12:00:00,0,50000,0,0.00,0,0,0,0,50000,50000,0,50000,0,0,0,0,0.00,0.00,0.00,0.00
2014-06-12 12:10:00,0,49977,0,0.00,0,0,0,0,49769,50000,69,50000,0,0,0,0,0.00,0.00,0.00,0.00
2014-06-12 12:20:00,0,50000,0,0.00,0,0,0,0,50000,50000,0,50000,0,0,0,0,0.00,0.00,0.00,0.00
2014-06-12 12:30:00,0,50000,0,0.00,0,0,0,0,50000,50000,0,50000,0,0,0,0,0.00,0.00,0.00,0.00
2014-06-12 12:40:00,0,50000,0,0.00,0,0,0,0,50000,50000,0,50000,0,0,0,0,0.00,0.00,0.00,0.00
2014-06-12 12:50:00,0,50000,0,0.00,0,0,0,0,50000,50000,0,50000,0,0,0,0,0.00,0.00,0.00,0.00
2014-06-12 13:00:00,0,50000,0,0.00,0,0,0,0,50000,50000,0,50000,0,0,0,0,0.00,0.00,0.00,0.00
2014-06-12 13:10:00,0,50000,0,0.00,0,0,0,0,50000,50000,0,50000,0,0,0,0,0.00,0.00,0.00,0.00
2014-06-12 13:20:00,0,50000,0,0.00,0,0,0,0,50000,50000,0,50000,0,0,0,0,0.00,0.00,0.00,0.00
2014-06-12 13:30:00,0,50000,0,0.00,0,0,0,0,50000,50000,0,50000,0,0,0,0,0.00,0.00,0.00,0.00
2014-06-12 13:40:00,1,50000,0,0.00,0,2,1,0,50000,50000,0,50000,0,0,0,0,0.00,0.00,0.00,0.00
2014-06-12 13:50:00,2,50000,0,0.00,0,2,1,2,50000,50000,0,50000,0,0,0,0,0.00,0.00,0.00,0.00
2014-06-12 14:00:00,2,49894,0,0.00,2,2,0,2,48944,50000,317,50000,0,0,0,0,0.00,0.00,0.00,0.00
2014-06-12 14:10:00,2,50000,0,0.00,2,2,0,2,50000,50000,0,50000,0,0,0,0,0.00,0.00,0.00,0.00
2014-06-12 14:20:00,2,50000,0,0.00,2,2,0,2,50000,50000,0,50000,0,0,0,0,0.00,0.00,0.00,0.00
2014-06-12 14:30:00,2,50000,0,0.00,2,2,0,2,50000,50000,0,50000,0,0,0,0,0.00,0.00,0.00,0.00
2014-06-12 14:40:00,2,50000,0,0.00,0,2,1,2,50000,50000,0,50000,0,0,0,0,0.00,0.00,0.00,0.00
2014-06-12 14:50:00,2,50000,0,0.00,2,2,0,2,50000,50000,0,50000,0,0,0,0,0.00,0.00,0.00,0.00
2014-06-12 15:00:00,2,50000,0,0.00,0,2,1,2,50000,50000,0,50000,0,0,0,0,0.00,0.00,0.00,0.00
2014-06-12 15:10:00,0,50000,0,0.00,0,0,0,0,50000,50000,0,50000,0,0,0,0,0.00,0.00,0.00,0.00
2014-06-12 15:20:00,0,50000,0,0.00,0,0,0,0,50000,50000,0,50000,0,0,0,0,0.00,0.00,0.00,0.00
2014-06-12 15:30:00,0,50000,0,0.00,0,0,0,0,50000,50000,0,50000,0,0,0,0,0.00,0.00,0.00,0.00
2014-06-12 15:40:00,0,50000,0,0.00,0,0,0,0,50000,50000,0,50000,0,0,0,0,0.00,0.00,0.00,0.00
2014-06-12 15:50:00,0,50000,0,0.00,0,0,0,0,50000,50000,0,50000,0,0,0,0,0.00,0.00,0.00,0.00
2014-06-12 16:00:00,0,50000,0,0.00,0,0,0,0,50000,50000,0,50000,0,0,0,0,0.00,0.00,0.00,0.00
2014-06-12 16:10:00,0,49768,0,0.00,0,0,0,0,47675,50000,698,50000,0,0,0,0,0.00,0.00,0.00,0.00
2014-06-12 16:20:00,0,49774,0,0.00,0,0,0,0,47743,50000,677,50000,0,0,0,0,0.00,0.00,0.00,0.00
2014-06-12 16:30:00,0,49977,0,0.00,0,0,0,0,49767,50000,70,50000,0,0,0,0,0.00,0.00,0.00,0.00
2014-06-12 16:40:00,0,50000,0,0.00,0,0,0,0,50000,50000,0,50000,0,0,0,0,0.00,0.00,0.00,0.00
2014-06-12 16:50:00,0,50000,0,0.00,0,0,0,0,50000,50000,0,50000,0,0,0,0,0.00,0.00,0.00,0.00
2014-06-12 17:00:00,0,50000,0,0.00,0,0,0,0,50000,50000,0,50000,0,0,0,0,0.00,0.00,0.00,0.00
2014-06-12 17:10:00,0,50000,0,0.00,0,0,0,0,50000,50000,0,50000,0,0,0,0,0.00,0.00,0.00,0.00
2014-06-12 17:20:00,0,50000,0,0.00,0,0,0,0,50000,50000,0,50000,0,0,0,0,0.00,0.00,0.00,0.00
2014-06-12 17:30:00,0,50000,0,0.00,0,0,0,0,50000,50000,0,50000,0,0,0,0,0.00,0.00,0.00,0.00
2014-06-12 17:40:00,0,50000,0,0.00,0,0,0,0,50000,50000,0,50000,0,0,0,0,0.00,0.00,0.00,0.00
2014-06-12 17:50:00,0,50000,0,0.00,0,0,0,0,50000,50000,0,50000,0,0,0,0,0.00,0.00,0.00,0.00
2014-06-12 18:00:00,0,50000,0,0.00,0,0,0,0,50000,50000,0,50000,0,0,0,0,0.00,0.00,0.00,0.00
2014-06-12 18:10:00,0,50000,0,0.00,0,0,0,0,50000,50000,0,50000,0,0,0,0,0.00,0.00,0.00,0.00
2014-06-12 18:20:00,0,48482,0,0.00,0,0,0,0,41198,50000,2739,50000,0,0,0,0,0.00,0.00,0.00,0.00
2014-06-12 18:30:00,0,50000,0,0.00,0,0,0,0,50000,50000,0,50000,0,0,0,0,0.00,0.00,0.00,0.00
2014-06-12 18:40:00,0,50000,0,0.00,0,0,0,0,50000,50000,0,50000,0,0,0,0,0.00,0.00,0.00,0.00
2014-06-12 18:50:00,0,49645,0,0.00,0,0,0,0,47069,50000,878,50000,0,0,0,0,0.00,0.00,0.00,0.00
2014-06-12 19:00:00,0,50000,0,0.00,0,0,0,0,50000,50000,0,50000,0,0,0,0,0.00,0.00,0.00,0.00
2014-06-12 19:10:00,0,50000,0,0.00,0,0,0,0,50000,50000,0,50000,0,0,0,0,0.00,0.00,0.00,0.00
2014-06-12 19:20:00,0,50000,0,0.00,0,0,0,0,50000,50000,0,50000,0,0,0,0,0.00,0.00,0.00,0.00
2014-06-12 19:30:00,0,50000,0,0.00,0,0,0,0,50000,50000,0,50000,0,0,0,0,0.00,0.00,0.00,0.00
2014-06-12 19:40:00,0,49992,0,0.00,0,0,0,0,49924,50000,23,50000,0,0,0,0,0.00,0.00,0.00,0.00
2014-06-12 19:50:00,0,49504,0,0.00,0,0,0,0,46573,50000,1023,50000,0,0,0,0,0.00,0.00,0.00,0.00
2014-06-12 20:00:00,0,49808,0,0.00,0,0,0,0,48083,50000,575,50000,0,0,0,0,0.00,0.00,0.00,0.00
2014-06-12 20:10:00,0,49958,0,0.00,0,0,0,0,49667,50000,100,50000,0,0,0,0,0.00,0.00,0.00,0.00
2014-06-12 20:20:00,0,49590,0,0.00,0,0,0,0,46325,50000,1093,50000,0,0,0,0,0.00,0.00,0.00,0.00
2014-06-12 20:30:00,0,49892,0,0.00,0,0,0,0,48923,50000,323,50000,0,0,0,0,0.00,0.00,0.00,0.00
2014-06-12 20:40:00,0,49827,0,0.00,0,0,0,0,48272,50000,518,50000,0,0,0,0,0.00,0.00,0.00,0.00
2014-06-12 20:50:00,0,48396,0,0.00,0,0,0,0,40131,50000,2908,49786,0,0,0,0,0.00,0.00,0.00,0.00
2014-06-12 21:00:00,0,49956,0,0.00,0,0,0,0,49561,50000,132,50000,0,0,0,0,0.00,0.00,0.00,0.00
2014-06-12 21:10:00,0,48352,0,0.00,0,0,0,0,42516,50000,2138,48988,0,0,0,0,0.00,0.00,0.00,0.00
2014-06-12 21:20:00,0,47962,0,0.00,0,0,0,0,41205,50000,2820,49556,0,0,0,0,0.00,0.00,0.00,0.00
2014-06-12 21:30:00,0,49526,0,0.00,0,0,0,0,47328,50000,854,50000,0,0,0,0,0.00,0.00,0.00,0.00
2014-06-12 21:40:00,0,48258,0,0.00,0,0,0,0,41130,50000,2791,49944,0,0,0,0,0.00,0.00,0.00,0.00
2014-06-12 21:50:00,0,48460,0,0.00,0,0,0,0,39868,50000,3213,50000,0,0,0,0,0.00,0.00,0.00,0.00
2014-06-12 22:00:00,0,46506,0,0.00,0,0,0,0,28719,50000,6559,50000,0,0,0,0,0.00,0.00,0.00,0.00
2014-06-12 22:10:00,0,49232,0,0.00,0,0,0,0,46865,50000,1157,50000,0,0,0,0,0.00,0.00,0.00,0.00
2014-06-12 22:20:00,0,48706,0,0.00,0,0,0,0,43602,50000,2231,50000,0,0,0,0,0.00,0.00,0.00,0.00
2014-06-12 22:30:00,0,49134,0,0.00,0,0,0,0,44422,50000,1773,50000,0,0,0,0,0.00,0.00,0.00,0.00
2014-06-12 22:40:00,0,48657,0,0.00,0,0,0,0,41249,50000,2832,50000,0,0,0,0,0.00,0.00,0.00,0.00
2014-06-12 22:50:00,0,47823,0,0.00,0,0,0,0,41494,50000,2835,49630,0,0,0,0,0.00,0.00,0.00,0.00
2014-06-12 23:00:00,0,45764,0,0.00,0,0,0,0,38428,50000,3609,44942,0,0,0,0,0.00,0.00,0.00,0.00
2014-06-12 23:10:00,0,46530,0,0.00,0,0,0,0,32201,50000,5507,49210,0,0,0,0,0.00,0.00,0.00,0.00
2014-06-12 23:20:00,0,43624,0,0.00,0,0,0,0,36719,50000,3091,43578,0,0,0,0,0.00,0.00,0.00,0.00
2014-06-12 23:30:00,0,47763,0,0.00,0,0,0,0,42405,50000,2917,49342,0,0,0,0,0.00,0.00,0.00,0.00
2014-06-12 23:40:00,0,44374,0,0.00,0,0,0,0,34648,50000,5526,44944,0,0,0,0,0.00,0.00,0.00,0.00
2014-06-12 23:50:00,0,42089,0,0.00,0,0,0,0,26373,50000,7021,44592,0,0,0,0,0.00,0.00,0.00,0.00
